Etusivu
METAR-TAF:

METAR-TAF

Lentoasemat :

Pruniers

Romorantin, Ranska

Leveyspiiri: 47-19N, Pituuspiiri: 001-41E, korkeus merenpinnasta: 85 m

Tämänhetkinen sää

Tämä raportti tehtiin 1 tunti ja 34 minuuttia sitten, kello 02.00 UTC
tyyntä
Lämpötila 2°C
Kosteus 100%
Ilmanpaine 1026 hPa
Näkyvyys: 0550 m
sumua

METAR: LFYR 190200Z AUTO 00000KT 0550 FG VV/// 02/02 Q1026

Aika: 04:34 (03:34 UTC)


TAF: puuttuu

Säähavainnot ja -ennusteet yli 4000 lentoasemalta (METAR- ja TAF-raportit).

Käytössä olevat sääasemat on merkitty karttaan keltaisilla ja punaisilla pisteillä.

Aseta hiiri pisteen päälle nähdäksesi sääaseman nimen.

Klikkaa sitten nähdäksesi säähavainnot ja -ennusteet.

Kartan vaihtaminen: klikkaa mustalla rastilla varustettuja vihreitä pisteitä, niin voit zoomata sisään; viivalla varustettua vihreää pistettä, niin voit zoomata ulos tai vihreitä nuolia, niin pääset viereisille kartoille.


METAR-TAF: